{"data":{"norad_id":66775,"epoch":"2026-05-25T03:20:34.769184Z","epoch_age_seconds":59016,"freshness":"FRESH","line1":"1 66775U 25276DP  26145.13929131  .00005999  00000+0  27376-3 0  9999","line2":"2 66775  97.4136 219.2604 0001255 162.8845 197.2433 15.20978367 26942","mean_motion":15.20978367,"eccentricity":0.0001255,"inclination_deg":97.4136,"raan_deg":219.2604,"arg_perigee_deg":162.8845,"mean_anomaly_deg":197.2433,"bstar":0.00027376,"rev_number":2694,"period_min":94.675902776992,"perigee_km":502.02465647729,"apogee_km":503.7517938088,"semimajor_km":6881.025225143,"source":"CELESTRAK","updated_at":"2026-05-25T13:38:06.478493Z"}}